When you browse on this site, cookies collect data to enhance your experience and personalize the content and advertising you see.
Visit our Privacy Policy to learn more. By continuing to use the site, you agree to this use of cookies and data.
  • In Hungary
  • List of Countries
  • For 7 days
  • Water Temperature
  • Weather Map
  • News
  • Weather Widgets
  • user-avatar
    Login

    Hourly Weather Starozaycevo

    Today, 18 October, Friday

    Time Temperature Precipitation Wind Pressure Humidity
    00:00 +3°C° 0 mm 3 mps 752 mmHg 66%
    01:00 +3°C° 0 mm 4 mps 752 mmHg 66%
    02:00 +3°C° 0 mm 3 mps 752 mmHg 65%
    03:00 +3°C° 0 mm 3 mps 752 mmHg 65%
    04:00 +3°C° 0 mm 4 mps 751 mmHg 64%
    05:00 +3°C° 0 mm 4 mps 751 mmHg 64%
    06:00 +3°C° 0 mm 4 mps 751 mmHg 63%
    07:00 +3°C° 0 mm 4 mps 750 mmHg 63%
    08:00 +3°C° 0 mm 5 mps 750 mmHg 57%
    09:00 +6°C° 0 mm 5 mps 750 mmHg 52%
    10:00 +7°C° 0 mm 6 mps 750 mmHg 45%
    11:00 +8°C° 0 mm 6 mps 750 mmHg 42%
    12:00 +9°C° 0 mm 6 mps 749 mmHg 39%
    13:00 +10°C° 0 mm 6 mps 749 mmHg 36%
    14:00 +10°C° 0 mm 5 mps 749 mmHg 38%
    15:00 +10°C° 0 mm 5 mps 748 mmHg 39%
    16:00 +11°C° 0 mm 4 mps 748 mmHg 40%
    17:00 +10°C° 0 mm 4 mps 747 mmHg 45%
    18:00 +9°C° 0 mm 3 mps 747 mmHg 50%
    19:00 +8°C° 0 mm 3 mps 747 mmHg 54%
    20:00 +8°C° 0 mm 3 mps 746 mmHg 58%
    21:00 +8°C° 0 mm 3 mps 746 mmHg 62%
    22:00 +8°C° 0 mm 3 mps 746 mmHg 67%
    23:00 +7°C° 0 mm 3 mps 745 mmHg 71%

    Tomorrow, 19 October, Saturday

    Time Temperature Precipitation Wind Pressure Humidity
    00:00 +7°C° 0 mm 3 mps 745 mmHg 74%
    01:00 +6°C° 0 mm 2 mps 745 mmHg 78%
    02:00 +6°C° 0 mm 2 mps 745 mmHg 81%
    03:00 +6°C° 0 mm 2 mps 745 mmHg 84%
    04:00 +5°C° 0 mm 2 mps 745 mmHg 86%
    05:00 +6°C° 0 mm 1 mps 745 mmHg 85%
    06:00 +6°C° 0 mm 1 mps 745 mmHg 84%
    07:00 +6°C° 0 mm 1 mps 745 mmHg 83%
    08:00 +8°C° 0 mm 1 mps 745 mmHg 76%
    09:00 +9°C° 0 mm 1 mps 745 mmHg 69%
    10:00 +10°C° 0 mm 1 mps 746 mmHg 62%
    11:00 +10°C° 0 mm 1 mps 746 mmHg 63%
    12:00 +10°C° 0 mm 1 mps 746 mmHg 63%
    13:00 +10°C° 0 mm 2 mps 747 mmHg 64%
    14:00 +9°C° 0.1 mm 3 mps 747 mmHg 68%
    15:00 +7°C° 0.1 mm 4 mps 747 mmHg 73%
    16:00 +7°C° 0.1 mm 5 mps 747 mmHg 78%
    17:00 +6°C° 0.1 mm 5 mps 748 mmHg 79%
    18:00 +5°C° 0.1 mm 6 mps 749 mmHg 80%
    19:00 +4°C° 0.1 mm 7 mps 749 mmHg 81%
    20:00 +4°C° 0 mm 7 mps 750 mmHg 81%
    21:00 +3°C° 0 mm 7 mps 750 mmHg 81%
    22:00 +1°C° 0 mm 8 mps 751 mmHg 82%
    23:00 +1°C° 0.1 mm 8 mps 751 mmHg 82%

    Day after tomorrow, 20 October, Sunday

    Time Temperature Precipitation Wind Pressure Humidity
    00:00 0°C° 0.1 mm 8 mps 751 mmHg 82%
    01:00 0°C° 0.1 mm 8 mps 752 mmHg 82%
    02:00 -1°C° 0 mm 8 mps 752 mmHg 80%
    03:00 -1°C° 0 mm 8 mps 753 mmHg 79%
    04:00 -2°C° 0 mm 8 mps 753 mmHg 77%
    05:00 -2°C° 0 mm 7 mps 753 mmHg 75%
    06:00 -3°C° 0 mm 7 mps 754 mmHg 72%
    07:00 -3°C° 0 mm 7 mps 754 mmHg 70%
    08:00 -3°C° 0 mm 7 mps 754 mmHg 65%
    09:00 -2°C° 0 mm 7 mps 755 mmHg 61%
    10:00 -1°C° 0 mm 7 mps 755 mmHg 56%
    11:00 +1°C° 0 mm 6 mps 755 mmHg 53%
    12:00 +1°C° 0 mm 6 mps 755 mmHg 49%
    13:00 +2°C° 0 mm 6 mps 755 mmHg 45%
    14:00 +2°C° 0 mm 6 mps 755 mmHg 44%
    15:00 +2°C° 0 mm 5 mps 755 mmHg 44%
    16:00 +2°C° 0 mm 5 mps 755 mmHg 43%
    17:00 +1°C° 0 mm 5 mps 755 mmHg 47%
    18:00 +1°C° 0 mm 4 mps 755 mmHg 51%
    19:00 0°C° 0 mm 4 mps 756 mmHg 54%
    20:00 -1°C° 0 mm 4 mps 756 mmHg 55%
    21:00 -1°C° 0 mm 4 mps 756 mmHg 55%
    22:00 -1°C° 0 mm 4 mps 756 mmHg 56%
    23:00 -2°C° 0 mm 4 mps 756 mmHg 58%

    21 October, Monday

    Time Temperature Precipitation Wind Pressure Humidity
    00:00 -1°C° 0 mm 3 mps 756 mmHg 59%
    01:00 -2°C° 0 mm 3 mps 756 mmHg 60%
    02:00 -2°C° 0 mm 2 mps 756 mmHg 60%
    03:00 -2°C° 0 mm 2 mps 756 mmHg 60%
    04:00 -2°C° 0 mm 2 mps 756 mmHg 60%
    05:00 -2°C° 0 mm 2 mps 756 mmHg 60%
    06:00 -2°C° 0 mm 2 mps 756 mmHg 59%
    07:00 -1°C° 0 mm 1 mps 756 mmHg 59%
    08:00 -1°C° 0 mm 2 mps 756 mmHg 54%
    09:00 +1°C° 0 mm 2 mps 756 mmHg 48%
    10:00 +1°C° 0 mm 3 mps 756 mmHg 43%
    11:00 +3°C° 0 mm 2 mps 756 mmHg 40%
    12:00 +4°C° 0 mm 2 mps 756 mmHg 36%
    13:00 +5°C° 0 mm 2 mps 755 mmHg 33%
    14:00 +5°C° 0 mm 2 mps 755 mmHg 34%
    15:00 +5°C° 0 mm 2 mps 755 mmHg 36%
    16:00 +7°C° 0 mm 1 mps 755 mmHg 37%
    17:00 +6°C° 0 mm 1 mps 755 mmHg 40%
    18:00 +5°C° 0 mm 1 mps 755 mmHg 43%
    19:00 +4°C° 0 mm 1 mps 755 mmHg 46%
    20:00 +3°C° 0 mm 1 mps 754 mmHg 48%
    21:00 +3°C° 0 mm 1 mps 754 mmHg 49%
    22:00 +3°C° 0 mm 1 mps 754 mmHg 51%
    23:00 +3°C° 0 mm 1 mps 754 mmHg 53%

    22 October, Tuesday

    Time Temperature Precipitation Wind Pressure Humidity
    00:00 +2°C° 0 mm 1 mps 753 mmHg 54%
    01:00 +2°C° 0 mm 1 mps 753 mmHg 56%
    02:00 +2°C° 0 mm 1 mps 753 mmHg 57%
    03:00 +2°C° 0 mm 1 mps 753 mmHg 59%
    04:00 +2°C° 0 mm 1 mps 753 mmHg 60%
    05:00 +2°C° 0 mm 1 mps 753 mmHg 62%
    06:00 +2°C° 0 mm 1 mps 753 mmHg 64%
    07:00 +2°C° 0 mm 1 mps 752 mmHg 66%
    08:00 +3°C° 0 mm 2 mps 752 mmHg 62%
    09:00 +4°C° 0 mm 2 mps 752 mmHg 58%
    10:00 +5°C° 0 mm 3 mps 752 mmHg 55%
    11:00 +7°C° 0 mm 3 mps 751 mmHg 53%
    12:00 +8°C° 0 mm 4 mps 751 mmHg 51%
    13:00 +10°C° 0 mm 4 mps 751 mmHg 50%
    14:00 +10°C° 0 mm 4 mps 751 mmHg 52%
    15:00 +10°C° 0 mm 3 mps 750 mmHg 55%
    16:00 +9°C° 0 mm 3 mps 750 mmHg 57%
    17:00 +9°C° 0 mm 3 mps 750 mmHg 62%
    18:00 +8°C° 0 mm 3 mps 750 mmHg 66%
    19:00 +7°C° 0 mm 3 mps 749 mmHg 71%
    20:00 +7°C° 0 mm 3 mps 749 mmHg 73%
    21:00 +5°C° 0 mm 3 mps 749 mmHg 75%
    22:00 +5°C° 0 mm 3 mps 748 mmHg 77%
    23:00 +5°C° 0 mm 3 mps 748 mmHg 79%

    23 October, Wednesday

    Time Temperature Precipitation Wind Pressure Humidity
    00:00 +5°C° 0 mm 3 mps 747 mmHg 81%
    01:00 +5°C° 0 mm 3 mps 747 mmHg 83%
    02:00 +5°C° 0 mm 3 mps 747 mmHg 83%
    03:00 +5°C° 0 mm 3 mps 746 mmHg 83%
    04:00 +5°C° 0 mm 3 mps 746 mmHg 83%
    05:00 +5°C° 0 mm 3 mps 746 mmHg 83%
    06:00 +5°C° 0 mm 3 mps 746 mmHg 82%
    07:00 +5°C° 0 mm 3 mps 745 mmHg 82%
    08:00 +6°C° 0 mm 4 mps 745 mmHg 76%
    09:00 +7°C° 0 mm 5 mps 745 mmHg 71%
    10:00 +9°C° 0 mm 6 mps 744 mmHg 66%
    11:00 +9°C° 0 mm 6 mps 744 mmHg 62%
    12:00 +10°C° 0 mm 6 mps 744 mmHg 59%
    13:00 +11°C° 0 mm 6 mps 744 mmHg 55%
    14:00 +11°C° 0.2 mm 6 mps 744 mmHg 62%
    15:00 +10°C° 0.2 mm 5 mps 744 mmHg 68%
    16:00 +10°C° 0.2 mm 4 mps 744 mmHg 74%
    17:00 +10°C° 0.4 mm 4 mps 744 mmHg 79%
    18:00 +9°C° 0.4 mm 3 mps 745 mmHg 85%
    19:00 +9°C° 0.4 mm 3 mps 745 mmHg 90%
    20:00 +9°C° 0 mm 2 mps 745 mmHg 91%
    21:00 +8°C° 0 mm 2 mps 746 mmHg 91%
    22:00 +9°C° 0 mm 1 mps 746 mmHg 92%
    23:00 +9°C° 0 mm 1 mps 746 mmHg 92%
    Show more